This is the latest recevied weather packets stored in our database for station/object N5ATR. If no packets are shown the sender has not sent any weather packets the latest 10 day(s).
| Time | Temp. | Humidity | Pressure | Rain* | Wind** | Luminosity | Snow |
|---|---|---|---|---|---|---|---|
| 1788125072 | 30° C | 30% | 1022.5 hPa | 0 mm | - | 564 W/m² | - |
| 1788124771 | 28.89° C | 31% | 1022.6 hPa | 0 mm | - | 597 W/m² | - |
| 1788124467 | 29.44° C | 31% | 1022.6 hPa | 0 mm | - | 573 W/m² | - |
| 1788124162 | 29.44° C | 31% | 1022.5 hPa | 0 mm | - | 640 W/m² | - |
| 1788123861 | 28.33° C | 31% | 1022.4 hPa | 0 mm | - | 351 W/m² | - |
| 1788123559 | 28.33° C | 32% | 1022.8 hPa | 0 mm | - | 342 W/m² | - |
| 1788123263 | 29.44° C | 31% | 1022.6 hPa | 0 mm | - | 563 W/m² | - |
| 1788122954 | 29.44° C | 32% | 1022.9 hPa | 0 mm | - | 377 W/m² | - |
| 1788122653 | 28.89° C | 31% | 1023.3 hPa | 0 mm | - | 703 W/m² | - |
| 1788122348 | 28.89° C | 30% | 1022.9 hPa | 0 mm | - | 754 W/m² | - |
| 1788122045 | 30° C | 31% | 1022.9 hPa | 0 mm | - | 253 W/m² | - |
| 1788121743 | 29.44° C | 32% | 1023.4 hPa | 0 mm | - | 673 W/m² | - |
| 1788121439 | 29.44° C | 32% | 1023.1 hPa | 0 mm | - | 655 W/m² | - |
| 1788121135 | 27.78° C | 32% | 1022.9 hPa | 0 mm | - | 567 W/m² | - |
| 1788120828 | 28.33° C | 33% | 1023.1 hPa | 0 mm | - | 368 W/m² | - |
| 1788120524 | 29.44° C | 31% | 1023.3 hPa | 0 mm | - | 635 W/m² | - |
| 1788120224 | 30° C | 31% | 1023.3 hPa | 0 mm | - | 667 W/m² | - |
| 1788119919 | 29.44° C | 31% | 1023.1 hPa | 0 mm | - | 738 W/m² | - |
| 1788119618 | 28.89° C | 32% | 1023.3 hPa | 0 mm | - | 609 W/m² | - |
| 1788119322 | 28.89° C | 31% | 1023.8 hPa | 0 mm | - | 739 W/m² | - |
| 1788119016 | 29.44° C | 30% | 1023.6 hPa | 0 mm | - | 757 W/m² | - |
| 1788118711 | 28.33° C | 31% | 1023.6 hPa | 0 mm | - | 588 W/m² | - |
| 1788118405 | 28.89° C | 31% | 1023.6 hPa | 0 mm | - | 615 W/m² | - |
| 1788118102 | 29.44° C | 31% | 1023.8 hPa | 0 mm | - | 662 W/m² | - |
| 1788117801 | 28.89° C | 31% | 1023.9 hPa | 0 mm | - | 726 W/m² | - |
* Rain latest hour (hover to see other rain measurements)
** Current wind speed in m/s (hover to see current wind gust speed)